Total_Precipitation_Accumulation
0.78 0.78 0.66 0.47 0.46 0.45 0.40 0.34 0.27 0.17 0.16 0.24 0.22 0.16 0.12 0.12 0.13 0.11 0.10 0.11 0.10 0.10 0.09 0.11 0.16 0.20 0.24 0.32 0.40 0.46 0.50 0.59 0.71 0.81 0.87 0.86 0.92 0.88 0.79 0.73 0.76 0.77 0.74 0.68
0.85 0.66 0.32 0.21 0.27 0.36 0.44 0.43 0.28 0.20 0.19 0.26 0.22 0.13 0.09 0.09 0.11 0.10 0.10 0.10 0.09 0.09 0.10 0.11 0.16 0.24 0.27 0.31 0.39 0.47 0.49 0.54 0.61 0.63 0.71 0.78 0.79 0.81 0.81 0.75 0.73 0.79 0.79 0.73
0.62 0.42 0.21 0.23 0.31 0.39 0.41 0.39 0.29 0.24 0.22 0.26 0.26 0.19 0.08 0.07 0.07 0.08 0.08 0.09 0.08 0.09 0.10 0.10 0.13 0.22 0.27 0.30 0.37 0.43 0.50 0.50 0.57 0.63 0.75 0.84 0.90 0.91 0.89 0.84 0.78 0.77 0.78 0.76
0.43 0.30 0.30 0.33 0.32 0.35 0.39 0.27 0.25 0.27 0.38 0.41 0.33 0.34 0.10 0.07 0.08 0.09 0.09 0.09 0.09 0.10 0.11 0.10 0.12 0.19 0.25 0.27 0.36 0.43 0.51 0.58 0.58 0.66 0.76 0.76 0.77 0.78 0.72 0.72 0.73 0.77 0.79 0.78
0.45 0.32 0.38 0.40 0.27 0.27 0.31 0.25 0.29 0.32 0.42 0.48 0.31 0.36 0.13 0.06 0.11 0.13 0.14 0.12 0.11 0.11 0.11 0.10 0.10 0.16 0.22 0.28 0.37 0.44 0.50 0.61 0.63 0.64 0.71 0.71 0.67 0.66 0.68 0.73 0.78 0.79 0.81 0.83
0.37 0.30 0.36 0.31 0.22 0.24 0.31 0.41 0.53 0.56 0.72 0.82 0.30 0.26 0.15 0.11 0.15 0.15 0.13 0.14 0.14 0.12 0.12 0.12 0.11 0.15 0.22 0.29 0.37 0.42 0.50 0.59 0.67 0.68 0.72 0.72 0.68 0.67 0.72 0.77 0.84 0.86 0.87 0.90
0.54 0.40 0.38 0.33 0.38 0.42 0.55 0.86 1.28 1.35 1.33 0.78 0.15 0.16 0.16 0.12 0.11 0.13 0.11 0.11 0.14 0.16 0.16 0.14 0.14 0.18 0.22 0.29 0.37 0.42 0.46 0.57 0.66 0.69 0.71 0.71 0.66 0.66 0.69 0.74 0.80 0.84 0.86 0.89
0.70 0.52 0.39 0.39 0.45 0.57 0.60 0.75 1.02 1.02 0.71 0.28 0.09 0.11 0.11 0.08 0.05 0.06 0.06 0.06 0.08 0.12 0.17 0.17 0.16 0.19 0.23 0.27 0.34 0.40 0.42 0.50 0.64 0.66 0.67 0.69 0.67 0.64 0.65 0.69 0.73 0.78 0.76 0.76
0.76 0.52 0.29 0.27 0.27 0.38 0.54 0.57 0.50 0.68 0.49 0.28 0.15 0.10 0.09 0.06 0.04 0.04 0.06 0.08 0.09 0.09 0.13 0.18 0.18 0.22 0.26 0.30 0.32 0.39 0.43 0.49 0.61 0.67 0.65 0.67 0.69 0.67 0.61 0.64 0.68 0.76 0.75 0.69
0.86 0.67 0.33 0.28 0.34 0.40 0.49 0.55 0.67 0.97 0.80 0.42 0.18 0.12 0.14 0.11 0.07 0.05 0.06 0.09 0.10 0.10 0.13 0.16 0.15 0.21 0.27 0.32 0.31 0.35 0.43 0.49 0.57 0.64 0.66 0.69 0.72 0.71 0.65 0.64 0.66 0.68 0.72 0.73
0.80 0.84 0.52 0.46 0.53 0.49 0.50 0.68 0.92 0.97 0.72 0.55 0.32 0.20 0.19 0.15 0.10 0.08 0.07 0.10 0.11 0.10 0.13 0.15 0.15 0.19 0.26 0.31 0.31 0.32 0.38 0.48 0.58 0.62 0.64 0.69 0.77 0.75 0.74 0.72 0.68 0.65 0.66 0.74
0.79 0.98 0.71 0.46 0.39 0.35 0.46 0.58 0.74 0.96 0.73 0.42 0.37 0.25 0.18 0.14 0.11 0.09 0.08 0.10 0.12 0.11 0.13 0.13 0.13 0.17 0.23 0.27 0.31 0.33 0.37 0.43 0.54 0.64 0.66 0.68 0.76 0.81 0.79 0.84 0.83 0.74 0.66 0.68
0.98 1.27 1.10 0.78 0.68 0.60 0.62 0.53 0.56 0.66 0.68 0.50 0.40 0.24 0.16 0.13 0.10 0.08 0.08 0.09 0.11 0.13 0.15 0.13 0.12 0.15 0.20 0.23 0.29 0.33 0.35 0.40 0.49 0.64 0.69 0.72 0.76 0.83 0.84 0.86 0.93 0.92 0.89 0.90
1.13 1.33 1.01 0.90 0.79 0.73 0.68 0.50 0.46 0.66 0.78 0.50 0.31 0.21 0.14 0.13 0.11 0.10 0.08 0.08 0.11 0.14 0.16 0.14 0.14 0.15 0.19 0.22 0.26 0.30 0.30 0.37 0.46 0.62 0.74 0.75 0.78 0.79 0.83 0.88 0.92 1.04 1.10 1.16
1.15 1.18 0.55 0.34 0.33 0.39 0.42 0.34 0.35 0.48 0.48 0.40 0.23 0.20 0.22 0.19 0.14 0.13 0.11 0.10 0.10 0.13 0.13 0.12 0.14 0.15 0.16 0.20 0.23 0.25 0.28 0.33 0.42 0.57 0.69 0.75 0.80 0.90 0.97 0.99 1.01 1.05 1.17 1.23
1.09 1.08 0.54 0.29 0.19 0.25 0.29 0.21 0.21 0.23 0.22 0.23 0.18 0.20 0.23 0.20 0.15 0.14 0.13 0.12 0.11 0.12 0.10 0.10 0.12 0.14 0.16 0.19 0.22 0.21 0.24 0.31 0.39 0.53 0.62 0.70 0.84 0.95 1.08 1.10 1.14 1.15 1.20 1.26
0.96 0.92 0.79 0.47 0.21 0.37 0.43 0.21 0.19 0.20 0.17 0.19 0.23 0.23 0.20 0.19 0.16 0.15 0.14 0.15 0.13 0.10 0.09 0.09 0.10 0.13 0.16 0.18 0.18 0.19 0.22 0.28 0.33 0.44 0.57 0.64 0.78 0.91 1.00 1.03 1.07 1.09 1.02 1.00
0.73 0.83 1.03 0.71 0.51 0.72 0.35 0.15 0.14 0.17 0.17 0.17 0.20 0.19 0.18 0.19 0.16 0.14 0.14 0.14 0.12 0.11 0.11 0.10 0.11 0.11 0.13 0.15 0.16 0.16 0.17 0.23 0.31 0.39 0.52 0.56 0.66 0.79 0.84 0.90 0.96 0.97 0.88 0.88
0.42 0.76 1.19 0.99 0.74 0.41 0.18 0.14 0.18 0.23 0.26 0.20 0.18 0.16 0.13 0.13 0.14 0.16 0.17 0.14 0.12 0.11 0.11 0.11 0.11 0.11 0.11 0.14 0.16 0.15 0.15 0.18 0.24 0.32 0.42 0.49 0.57 0.71 0.72 0.77 0.88 0.87 0.87 0.86
0.41 0.75 1.28 1.11 0.82 0.39 0.19 0.11 0.13 0.22 0.34 0.19 0.15 0.15 0.14 0.15 0.26 0.24 0.23 0.18 0.13 0.10 0.09 0.10 0.10 0.09 0.10 0.12 0.14 0.13 0.14 0.16 0.21 0.28 0.35 0.40 0.45 0.58 0.61 0.62 0.68 0.72 0.73 0.76
0.68 1.03 1.20 0.90 0.69 0.30 0.16 0.13 0.16 0.40 0.46 0.18 0.13 0.14 0.14 0.20 0.30 0.26 0.21 0.19 0.15 0.12 0.11 0.10 0.10 0.10 0.10 0.12 0.13 0.13 0.13 0.15 0.19 0.24 0.28 0.33 0.37 0.43 0.48 0.53 0.56 0.60 0.63 0.67
0.50 0.69 0.69 0.65 0.73 0.38 0.17 0.20 0.36 0.42 0.23 0.14 0.12 0.11 0.13 0.13 0.12 0.13 0.16 0.17 0.14 0.14 0.14 0.12 0.11 0.10 0.10 0.12 0.13 0.11 0.12 0.15 0.17 0.22 0.27 0.31 0.36 0.37 0.41 0.46 0.51 0.53 0.61 0.70
0.33 0.43 0.47 0.46 0.39 0.24 0.18 0.24 0.25 0.19 0.14 0.11 0.11 0.10 0.12 0.11 0.10 0.12 0.14 0.14 0.13 0.14 0.15 0.13 0.13 0.13 0.12 0.11 0.12 0.10 0.10 0.14 0.18 0.22 0.25 0.31 0.35 0.33 0.39 0.47 0.53 0.56 0.63 0.72
0.24 0.22 0.27 0.24 0.15 0.11 0.12 0.13 0.14 0.12 0.10 0.09 0.09 0.11 0.10 0.10 0.10 0.11 0.12 0.13 0.14 0.14 0.12 0.11 0.12 0.14 0.13 0.11 0.11 0.10 0.11 0.15 0.19 0.22 0.25 0.29 0.36 0.37 0.37 0.44 0.53 0.58 0.62 0.76
0.19 0.20 0.23 0.18 0.10 0.07 0.07 0.08 0.09 0.10 0.08 0.06 0.07 0.09 0.08 0.08 0.08 0.10 0.12 0.14 0.14 0.15 0.13 0.12 0.12 0.12 0.13 0.13 0.10 0.09 0.12 0.17 0.21 0.23 0.25 0.30 0.37 0.41 0.39 0.41 0.47 0.55 0.58 0.77
0.12 0.14 0.18 0.14 0.07 0.09 0.07 0.05 0.05 0.07 0.08 0.06 0.07 0.08 0.06 0.06 0.08 0.09 0.11 0.13 0.12 0.13 0.13 0.13 0.11 0.12 0.12 0.11 0.10 0.11 0.13 0.18 0.24 0.28 0.30 0.34 0.40 0.41 0.41 0.41 0.45 0.52 0.55 0.62